This is the latest recevied weather packets stored in our database for station/object W3AJR. If no packets are shown the sender has not sent any weather packets the latest 10 day(s).
| Time | Temp. | Humidity | Pressure | Rain* | Wind** | Luminosity | Snow |
|---|---|---|---|---|---|---|---|
| 1777997562 | 25.56° C | 43% | 1011.6 hPa | 0 mm | - | 802 W/m² | - |
| 1777997259 | 25.56° C | 44% | 1011.6 hPa | 0 mm | - | 797 W/m² | - |
| 1777996957 | 26.11° C | 43% | 1011.6 hPa | 0 mm | - | 788 W/m² | - |
| 1777996653 | 25.56° C | 45% | 1011.7 hPa | 0 mm | - | 776 W/m² | - |
| 1777996349 | 25.56° C | 44% | 1011.9 hPa | 0 mm | - | 803 W/m² | - |
| 1777996045 | 26.11° C | 46% | 1012 hPa | 0 mm | - | 850 W/m² | - |
| 1777995742 | 26.11° C | 46% | 1012 hPa | 0 mm | - | 830 W/m² | - |
| 1777995438 | 25° C | 46% | 1011.9 hPa | 0 mm | - | 845 W/m² | - |
| 1777995136 | 25° C | 45% | 1012.1 hPa | 0 mm | - | 855 W/m² | - |
| 1777994833 | 25° C | 46% | 1012.3 hPa | 0 mm | - | 855 W/m² | - |
| 1777994529 | 25° C | 45% | 1012.2 hPa | 0 mm | - | 864 W/m² | - |
| 1777994223 | 25° C | 48% | 1012.1 hPa | 0 mm | - | 854 W/m² | - |
| 1777993921 | 24.44° C | 48% | 1012.1 hPa | 0 mm | - | 838 W/m² | - |
| 1777993617 | 23.89° C | 49% | 1011.9 hPa | 0 mm | - | 840 W/m² | - |
| 1777993315 | 23.89° C | 49% | 1012 hPa | 0 mm | - | 840 W/m² | - |
| 1777993009 | 23.89° C | 48% | 1011.9 hPa | 0 mm | - | 821 W/m² | - |
| 1777992709 | 23.33° C | 50% | 1012 hPa | 0 mm | - | 775 W/m² | - |
| 1777992405 | 23.33° C | 50% | 1012.2 hPa | 0 mm | - | 734 W/m² | - |
| 1777992103 | 22.78° C | 49% | 1012.2 hPa | 0 mm | - | 758 W/m² | - |
| 1777991800 | 22.78° C | 51% | 1012.1 hPa | 0 mm | - | 766 W/m² | - |
| 1777991497 | 22.78° C | 51% | 1011.9 hPa | 0 mm | - | 96 W/m² | - |
| 1777991195 | 22.22° C | 52% | 1012.1 hPa | 0 mm | - | 65 W/m² | - |
| 1777990892 | 22.22° C | 52% | 1011.9 hPa | 0 mm | - | 69 W/m² | - |
| 1777990590 | 21.67° C | 53% | 1012 hPa | 0 mm | - | 140 W/m² | - |
| 1777989982 | 21.67° C | 52% | 1012.1 hPa | 0 mm | - | 60 W/m² | - |
* Rain latest hour (hover to see other rain measurements)
** Current wind speed in m/s (hover to see current wind gust speed)